KG6S Weather Reports


time (UTC)temp
C
wind
direction
speed
KPH
gust
KPH
rain 1hr
cm
rain 24hr
cm
rain mn
cm
humidity
%
barometer
mb
20260503044510 13 234 0.0 0.0 0.00 0.05 0.05 64 1009.7
20260503041537 14 148 0.0 0.0 0.00 0.05 0.05 63 1009.5
20260503040005 14 175 0.0 0.0 0.00 0.05 0.05 60 1009.2
20260503033044 15 266 1.6 6.4 0.03 0.05 0.05 59 1008.9
20260503031507 14 260 6.4 9.7 0.05 0.05 0.05 61 1008.7
20260503030045 15 244 0.0 8.0 0.05 0.05 0.05 60 1008.6
20260503024510 15 326 6.4 17.7 0.05 0.05 0.05 53 1008.3
20260503023041 16 231 9.7 19.3 0.03 0.03 0.03 52 1008.5
20260503021506 17 229 0.0 0.0 0.00 0.00 0.00 42 1007.9
20260503020043 17 23 0.0 0.0 0.00 0.00 0.00 40 1007.6
20260503014510 18 23 0.0 0.0 0.00 0.00 0.00 40 1007.7
20260503013044 18 33 0.0 1.6 0.00 0.00 0.00 39 1007.9
20260503011508 18 80 0.0 0.0 0.00 0.00 0.00 41 1007.9
20260503010047 18 346 6.4 11.3 0.00 0.00 0.00 42 1008.1
20260503004512 18 79 9.7 17.7 0.00 0.00 0.00 38 1007.9
20260503003042 18 85 12.9 20.9 0.00 0.00 0.00 38 1007.9
20260503001504 17 119 14.5 22.5 0.00 0.00 0.00 43 1008.1
20260503000042 18 149 9.7 19.3 0.00 0.00 0.00 39 1008.8
20260502234510 20 229 12.9 32.2 0.00 0.00 0.00 31 1008.0
20260502230043 19 205 9.7 22.5 0.00 0.00 0.00 35 1007.6
20260502224510 20 235 16.1 41.8 0.00 0.00 0.00 34 1007.9
20260502223041 21 217 6.4 17.7 0.00 0.00 0.00 29 1007.6
20260502221504 22 246 4.8 16.1 0.00 0.00 0.00 24 1007.9
20260502220042 22 217 6.4 16.1 0.00 0.00 0.00 25 1007.9
20260502214511 23 262 6.4 20.9 0.00 0.00 0.00 24 1008.0
20260502213054 23 194 8.0 17.7 0.00 0.00 0.00 23 1008.2
20260502210036 22 256 11.3 19.3 0.00 0.00 0.00 23 1008.5
20260502204613 23 125 3.2 14.5 0.00 0.00 0.00 23 1008.8
20260502203041 22 106 8.0 20.9 0.00 0.00 0.00 23 1008.8
20260502201506 22 201 4.8 9.7 0.00 0.00 0.00 23 1008.9
20260502200043 22 164 9.7 22.5 0.00 0.00 0.00 24 1009.1
20260502194510 23 206 9.7 27.4 0.00 0.00 0.00 23 1009.3
20260502193041 23 167 8.0 22.5 0.00 0.00 0.00 23 1009.2
20260502191504 22 187 9.7 24.1 0.00 0.00 0.00 24 1009.5
20260502190042 22 168 11.3 24.1 0.00 0.00 0.00 24 1009.7
20260502184511 22 208 8.0 17.7 0.00 0.00 0.00 24 1009.8
20260502183044 21 194 9.7 20.9 0.00 0.00 0.00 24 1010.0
20260502181506 20 335 6.4 12.9 0.00 0.00 0.00 29 1010.3
20260502170106 17 47 4.8 9.7 0.00 0.00 0.00 34 1010.6
20260502163046 16 20 4.8 9.7 0.00 0.00 0.00 37 1010.8
20260502161510 15 40 3.2 8.0 0.00 0.00 0.00 41 1010.9
20260502123047 10 210 0.0 1.6 0.00 0.00 0.00 46 1009.8
20260502114502 11 263 0.0 0.0 0.00 0.00 0.00 37 1009.9
20260502113036 11 201 1.6 6.4 0.00 0.00 0.00 36 1009.8
20260502111504 12 260 0.0 6.4 0.00 0.00 0.00 35 1009.9
20260502110040 11 265 0.0 0.0 0.00 0.00 0.00 34 1009.8
20260502104510 12 112 0.0 1.6 0.00 0.00 0.00 31 1009.8
20260502103100 11 227 0.0 6.4 0.00 0.00 0.00 32 1009.7
20260502091509 11 165 0.0 0.0 0.00 0.00 0.00 27 1009.8
20260502064510 13 168 0.0 0.0 0.00 0.00 0.00 23 1010.5
20260502063049 14 168 0.0 0.0 0.00 0.00 0.00 21 1010.4
20260502061536 15 203 0.0 0.0 0.00 0.00 0.00 20 1010.4
20260502060022 15 211 0.0 0.0 0.00 0.00 0.00 20 1010.5
20260502054509 15 204 0.0 0.0 0.00 0.00 0.00 20 1010.4
20260502053050 15 144 0.0 0.0 0.00 0.00 0.00 20 1010.5
20260502051530 15 158 0.0 0.0 0.00 0.00 0.00 20 1010.4